TSC879 LFBO-CYUL

Flight info

Callsign TSC879
Flight time N/A
Altitude 34000
Route LACOU DCT LERGI DCT TALIG DCT LULOX DCT ADARA/M078F350 NATF MUSAK/N0444F360 N308A MIILS DCT TIBOS ROCKT3
Aircraft A21N/M-SDE3FGHIRWY/LB1

Departure

Time N/A
Airport Toulouse-Blagnac Airport (LFBO)

Arrival

Time 2026-04-30 19:42
Airport Montreal / Pierre Elliott Trudeau International Airport (CYUL)
Time Latitude Longitude Altitude Speed Heading
2026-04-30 19:03 46.79274 -69.03011 35804 ft 447 kts 260°
2026-04-30 19:04 46.78361 -69.21066 35799 ft 449 kts 260°
2026-04-30 19:05 46.77424 -69.39062 35802 ft 449 kts 259°
2026-04-30 19:06 46.76456 -69.57114 35797 ft 450 kts 259°
2026-04-30 19:06 46.75721 -69.70458 35785 ft 449 kts 259°
2026-04-30 19:07 46.74971 -69.83786 35794 ft 450 kts 259°
2026-04-30 19:08 46.73962 -70.01289 35782 ft 451 kts 259°
2026-04-30 19:09 46.73185 -70.14477 35952 ft 450 kts 259°
2026-04-30 19:09 46.72643 -70.23502 35806 ft 449 kts 259°
2026-04-30 19:10 46.71545 -70.41441 35773 ft 449 kts 259°
2026-04-30 19:11 46.70708 -70.54823 35779 ft 450 kts 259°
2026-04-30 19:12 46.70131 -70.63880 35774 ft 450 kts 259°
2026-04-30 19:12 46.69558 -70.72796 35774 ft 450 kts 258°
2026-04-30 19:13 46.68383 -70.90695 35772 ft 449 kts 258°
2026-04-30 19:14 46.67787 -70.99609 35767 ft 448 kts 258°
2026-04-30 19:14 46.67184 -71.08507 35775 ft 448 kts 258°
2026-04-30 19:15 46.66570 -71.17422 35769 ft 447 kts 259°
2026-04-30 19:15 46.65619 -71.30840 35693 ft 447 kts 257°
2026-04-30 19:16 46.65038 -71.35191 35496 ft 439 kts 250°
2026-04-30 19:16 46.64120 -71.39395 35251 ft 434 kts 244°
2026-04-30 19:16 46.61412 -71.47003 34348 ft 424 kts 231°
2026-04-30 19:17 46.59657 -71.50386 33698 ft 422 kts 224°
2026-04-30 19:17 46.55626 -71.56435 32218 ft 423 kts 220°
2026-04-30 19:17 46.53521 -71.59450 31470 ft 424 kts 220°
2026-04-30 19:18 46.50056 -71.64426 30310 ft 422 kts 220°
2026-04-30 19:18 46.47342 -71.68339 29654 ft 414 kts 219°
2026-04-30 19:18 46.45307 -71.71272 29160 ft 408 kts 219°
2026-04-30 19:19 46.43327 -71.74126 28673 ft 403 kts 219°
2026-04-30 19:19 46.41373 -71.76937 28190 ft 397 kts 219°
2026-04-30 19:19 46.37489 -71.82469 27530 ft 389 kts 218°
2026-04-30 19:20 46.35541 -71.85160 27551 ft 391 kts 218°
2026-04-30 19:20 46.33561 -71.87882 27567 ft 392 kts 218°
2026-04-30 19:20 46.29643 -71.93269 27290 ft 392 kts 219°
2026-04-30 19:21 46.27683 -71.95963 26744 ft 389 kts 219°
2026-04-30 19:21 46.23897 -72.01163 25769 ft 381 kts 219°
2026-04-30 19:22 46.20065 -72.06423 24801 ft 373 kts 219°
2026-04-30 19:22 46.14584 -72.13934 23417 ft 364 kts 219°
2026-04-30 19:23 46.09228 -72.21236 22048 ft 355 kts 219°
2026-04-30 19:24 46.05706 -72.26024 21123 ft 350 kts 219°
2026-04-30 19:24 46.04008 -72.28329 20680 ft 347 kts 218°
2026-04-30 19:24 46.00573 -72.32984 19769 ft 342 kts 218°
2026-04-30 19:25 45.95584 -72.40057 18406 ft 339 kts 225°
2026-04-30 19:26 45.93051 -72.45709 17516 ft 341 kts 236°
2026-04-30 19:26 45.90849 -72.51646 16634 ft 337 kts 237°
2026-04-30 19:26 45.89753 -72.54610 16185 ft 335 kts 237°
2026-04-30 19:27 45.87643 -72.60278 15318 ft 332 kts 237°
2026-04-30 19:27 45.85537 -72.65906 14435 ft 328 kts 237°
2026-04-30 19:28 45.84493 -72.68694 13999 ft 326 kts 237°
2026-04-30 19:28 45.82371 -72.74355 13129 ft 323 kts 238°
2026-04-30 19:29 45.80292 -72.79891 12264 ft 320 kts 238°
2026-04-30 19:29 45.79241 -72.82681 11826 ft 318 kts 239°
2026-04-30 19:30 45.76146 -72.90876 10556 ft 312 kts 239°
2026-04-30 19:30 45.74137 -72.96184 10181 ft 290 kts 239°
2026-04-30 19:31 45.72365 -73.01016 9902 ft 271 kts 245°
2026-04-30 19:31 45.71795 -73.03562 9524 ft 272 kts 255°
2026-04-30 19:31 45.71209 -73.08807 8811 ft 270 kts 260°
2026-04-30 19:32 45.70938 -73.11462 8465 ft 267 kts 258°
2026-04-30 19:32 45.70555 -73.14057 8113 ft 265 kts 255°
2026-04-30 19:32 45.70114 -73.16547 7834 ft 260 kts 254°
2026-04-30 19:32 45.69663 -73.19034 7564 ft 254 kts 254°
2026-04-30 19:33 45.69228 -73.21423 7273 ft 250 kts 254°
2026-04-30 19:33 45.68791 -73.23818 6974 ft 246 kts 255°
2026-04-30 19:33 45.68372 -73.26118 6699 ft 242 kts 255°
2026-04-30 19:33 45.67944 -73.28450 6382 ft 239 kts 255°
2026-04-30 19:34 45.67538 -73.30672 6055 ft 238 kts 255°
2026-04-30 19:34 45.67117 -73.32967 5718 ft 236 kts 255°
2026-04-30 19:34 45.66294 -73.37453 5068 ft 233 kts 256°
2026-04-30 19:35 45.65898 -73.39600 4766 ft 231 kts 256°
2026-04-30 19:35 45.65503 -73.41746 4441 ft 230 kts 256°
2026-04-30 19:35 45.65114 -73.43861 4130 ft 228 kts 256°
2026-04-30 19:35 45.64715 -73.46034 3808 ft 227 kts 257°
2026-04-30 19:36 45.64319 -73.48177 3501 ft 226 kts 257°
2026-04-30 19:36 45.63923 -73.50329 3208 ft 224 kts 257°
2026-04-30 19:36 45.62799 -73.54273 2973 ft 205 kts 236°
2026-04-30 19:37 45.61884 -73.55753 3029 ft 198 kts 230°
2026-04-30 19:37 45.60909 -73.57137 3055 ft 200 kts 228°
2026-04-30 19:37 45.59893 -73.58495 3003 ft 196 kts 227°
2026-04-30 19:37 45.58940 -73.59734 2938 ft 180 kts 227°
2026-04-30 19:38 45.58024 -73.60923 2742 ft 178 kts 227°
2026-04-30 19:38 45.57135 -73.62080 2506 ft 177 kts 227°
2026-04-30 19:38 45.56250 -73.63234 2273 ft 177 kts 227°
2026-04-30 19:38 45.55349 -73.64408 2036 ft 175 kts 227°
2026-04-30 19:39 45.54519 -73.65487 1828 ft 161 kts 226°
2026-04-30 19:39 45.53752 -73.66486 1591 ft 148 kts 227°
2026-04-30 19:39 45.53038 -73.67417 1380 ft 138 kts 227°
2026-04-30 19:39 45.52340 -73.68333 1213 ft 137 kts 227°
2026-04-30 19:40 45.51652 -73.69236 1048 ft 137 kts 227°
2026-04-30 19:40 45.50955 -73.70146 874 ft 137 kts 227°
2026-04-30 19:40 45.50259 -73.71041 689 ft 136 kts 227°
2026-04-30 19:40 45.49573 -73.71951 500 ft 136 kts 227°
2026-04-30 19:41 45.48878 -73.72861 309 ft 135 kts 228°
2026-04-30 19:41 45.48198 -73.73759 132 ft 132 kts 225°
2026-04-30 19:41 45.47601 -73.74544 119 ft 96 kts 223°
2026-04-30 19:41 45.47207 -73.75060 114 ft 61 kts 222°
2026-04-30 19:42 45.46959 -73.75381 114 ft 39 kts 221°
2026-04-30 19:42 45.46805 -73.75551 113 ft 23 kts 201°
2026-04-30 19:42 45.46655 -73.75609 110 ft 20 kts 191°
2026-04-30 19:42 45.46517 -73.75652 110 ft 19 kts 193°
2026-04-30 19:43 45.46399 -73.75692 110 ft 14 kts 193°
2026-04-30 19:43 45.46296 -73.75713 110 ft 15 kts 185°
2026-04-30 19:43 45.46195 -73.75715 108 ft 12 kts 176°
2026-04-30 19:44 45.46124 -73.75839 107 ft 10 kts 267°
2026-04-30 19:44 45.46122 -73.75942 107 ft 9 kts 268°
2026-04-30 19:44 45.46112 -73.76022 107 ft 7 kts 230°
2026-04-30 19:44 45.46061 -73.76042 107 ft 8 kts 179°
2026-04-30 19:45 45.46008 -73.76041 106 ft 9 kts 179°
2026-04-30 19:45 45.45937 -73.76034 105 ft 10 kts 171°
2026-04-30 19:45 45.45860 -73.76010 104 ft 11 kts 164°
2026-04-30 19:45 45.45802 -73.75945 104 ft 11 kts 118°
2026-04-30 19:46 45.45778 -73.75857 104 ft 9 kts 110°
2026-04-30 19:46 45.45754 -73.75765 104 ft 9 kts 108°
2026-04-30 19:46 45.45754 -73.75703 104 ft 5 kts 39°
2026-04-30 19:46 45.45790 -73.75690 104 ft 4 kts
2026-04-30 19:47 45.45811 -73.75685 104 ft 0 kts